SL-16 DEB, 25401

Orbit data source: Space-Track

SL-16 DEB, 25401 is space debris in SSO originally from a launch on Fri, 10 Jul 1998 UTC launched from the Tyuratam Missile And Space Complex (TTMTR). Debris objects in space refer to the collection of defunct objects orbiting the Earth. Examples of debris include non-operational satellites, rocket bodies, and fragments generated from explosions, collisions, or faulty payload assembly.

Loading next visibility...
Identifier
25401, 1998-043H
Orbit
SSO
Country
Flag of CISCIS
Related business
Manufacturer
Yuzhnoe
Mission
Spacecraft
Bus & Motor
SEP MOTOR COVER, Unknown motor
Mass
~0 kg wet, ~1 kg dry
Launch date (UTC)
1998-07-10 (28 years ago)
Launch vehicle
Unknown
Launch site
Tyuratam Missile And Space Complex (TTMTR)
Object type
Payload
Rocket body
Debris
Shape & HBR
Cone, 0.5 m
Radar Cross Section
0.635 m², Small (<0.1 m²)

Expand to show TLE details & history
Last TLE update: 1 day ago

TLE from 1 day ago
0 SL-16 DEB
1 25401U 98043H   26093.32767542  .00000049  00000-0  58892-4 0  9991
2 25401  98.5380 221.8510 0161040 184.2408 231.7270 13.94815741410117
Epoch: 2026-04-03T07:51Z
TLE epoch observation values (Epoch: 2026-04-03T07:51:51.156Z)
Latitude
53.75332°
Longitude
-99.52986°
Altitude
994.465 km
Speed
7.322 km/s
True Right ascension
14h 00m 23s
True Declination
53° 35' 40"
Sunlit
Object was in daylight at epoch
Visualization orbit readout
Latitude
Unknown
Longitude
Unknown
Altitude
Unknown
Speed
Unknown
Apparent Right ascension
Unknown
Apparent Declination
Unknown
Sunlit
N/A
Visualization observer readout
Local Sidereal Time
14:54:40
Azimuth
Unknown
Elevation
Unknown
Doppler factor
Unknown
Orbital elements
Apogee altitude
1,026.338 km
Perigee altitude
791.634 km
Semi-major axis
7,287.123 km
Eccentricity
0.0161
Inclination
98.538°
RAAN
221.851°
Arg. of periapsis
184.2408°
True anomaly
230.29625°
Mean anomaly
231.727°
Eccentric anomaly
231.00983°
Mean motion
3.48906 °/min
Orbital period
103.18 mins
BSTAR
0.000058892
Loading maneuver chart data...
Computing Atmospheric mass density...
Loading historical data...
Loading historical data...
Loading historical data...
Loading historical data...
Loading historical data...
Loading historical data...
Loading historical data...

Documentation

Showing up to 5 results
|